Weather History for KAVL - August, 2012

Change the Weather History Date:

Thursday, August 2, 2012

  Actual Average Record
Temperature  
Mean Temperature 76 °F 74 °F  
Max Temperature 87 °F 84 °F 93 °F (2006)
Min Temperature 65 °F 64 °F 48 °F (1895)
Degree Days  
Heating Degree Days 0 0  
Month to date heating degree days 0 0  
Since 1 June heating degree days 9 14  
Since 1 July heating degree days 0 0  
Cooling Degree Days 11 9  
Month to date cooling degree days 21 18  
Year to date cooling degree days 705 528  
Since 1 June cooling degree days 581 470  
Growing Degree Days 26 (Base 50)    
Moisture  
Dew Point 66 °F    
Average Humidity 69    
Maximum Humidity 93    
Minimum Humidity 45    
Precipitation  
Precipitation T in 0.14 in 0.84 in (1890)
Month to date precipitation T 0.27  
Year to date precipitation 26.10 27.48  
Snow  
Snow 0.00 in 0.00 in 0.00 in ()
Month to date snowfall 0.0 0.0  
Since 1 June snowfall 0.0 0.0  
Since 1 July snowfall 0.0 0.0  
Snow Depth 0.00 in    
Sea Level Pressure  
Sea Level Pressure 29.95 in    
Wind  
Wind Speed 4 mph (South)    
Max Wind Speed 17 mph    
Max Gust Speed 24 mph    
Visibility 7 miles    
Events Fog , Thunderstorm    
T = Trace of Precipitation, MM = Missing Value Source: NWS Daily Summary

Daily Weather History Graph

Daily Weather History Graph

Search for Another Location

Airport or City:

Trip Planner

Search our weather history database for the weather conditions in past years. The results will help you decide how hot, cold, wet, or windy it might be!

Date:

Astronomy

Aug. 02, 2012 Rise Set
Actual Time 6:39 AM EDT 8:32 PM EDT
Civil Twilight 6:11 AM EDT 9:00 PM EDT
Nautical Twilight 5:38 AM EDT 9:33 PM EDT
Astronomical Twilight 5:02 AM EDT 10:09 PM EDT
Moon 8:42 PM EDT (8/2) 7:12 AM EDT (8/2)
Length of Visible Light 14h 48m
Length of Day
13h 52m
Full, 100% of the Moon is Illuminated
Aug 2
Full
Aug 9
Last Quarter
Aug 17
New
Aug 24
First Quarter
Aug 31
Full

Hourly Weather History & Observations

Time (EDT) Temp. Heat Index Dew Point Humidity Pressure Visibility Wind Dir Wind Speed Gust Speed Precip Events Conditions
12:54 AM 69.8 °F - 66.2 °F 88% 29.99 in 6.0 mi Calm Calm - N/A   Clear
1:54 AM 69.1 °F - 66.0 °F 90% 29.90 in 9.0 mi Calm Calm - N/A   Clear
2:22 AM 69.8 °F - 66.2 °F 88% 29.99 in 7.0 mi NNW 3.5 mph - N/A   Scattered Clouds
2:54 AM 69.1 °F - 66.9 °F 93% 29.89 in 8.0 mi North 5.8 mph - N/A   Clear
3:54 AM 68.0 °F - 66.0 °F 93% 29.90 in 8.0 mi NNW 3.5 mph - N/A   Clear
4:54 AM 66.2 °F - 64.4 °F 94% 30.00 in 6.0 mi Calm Calm - N/A   Partly Cloudy
5:54 AM 64.9 °F - 63.0 °F 93% 29.92 in 7.0 mi Calm Calm - N/A   Scattered Clouds
6:32 AM 64.4 °F - 62.6 °F 94% 30.01 in 7.0 mi Calm Calm - N/A   Partly Cloudy
6:54 AM 66.0 °F - 64.0 °F 93% 29.94 in 6.0 mi Calm Calm - N/A   Mostly Cloudy
7:54 AM 66.0 °F - 64.0 °F 93% 29.95 in 4.0 mi Calm Calm - N/A   Overcast
8:54 AM 68.0 °F - 66.0 °F 93% 29.95 in 2.0 mi Calm Calm - N/A   Overcast
8:56 AM 68.0 °F - 66.2 °F 94% 30.03 in 1.0 mi Calm Calm - N/A   Overcast
9:02 AM 66.2 °F - 66.2 °F 100% 30.03 in 0.2 mi Calm Calm - N/A Fog Fog
9:12 AM 68.0 °F - 66.2 °F 94% 30.04 in 1.0 mi Calm Calm - N/A   Overcast
9:18 AM 69.8 °F - 68.0 °F 94% 30.04 in 2.0 mi Calm Calm - N/A   Overcast
9:33 AM 71.6 °F - 66.2 °F 83% 30.04 in 3.0 mi Calm Calm - N/A   Mostly Cloudy
9:40 AM 71.6 °F - 66.2 °F 83% 30.04 in 5.0 mi Calm Calm - N/A   Scattered Clouds
9:54 AM 73.0 °F - 66.9 °F 81% 29.95 in 7.0 mi Variable 3.5 mph - N/A   Partly Cloudy
10:54 AM 78.1 °F - 66.0 °F 66% 29.94 in 10.0 mi South 4.6 mph - N/A   Clear
11:54 AM 82.0 °F 84.9 °F 68.0 °F 62% 29.94 in 10.0 mi South 9.2 mph - N/A   Mostly Cloudy
12:54 PM 84.9 °F 87.6 °F 66.9 °F 55% 29.93 in 10.0 mi South 8.1 mph - N/A   Clear
1:54 PM 86.0 °F 86.6 °F 62.6 °F 45% 30.00 in 10.0 mi SE 6.9 mph - N/A   Clear
2:54 PM 86.0 °F 87.6 °F 64.9 °F 49% 29.90 in 10.0 mi South 10.4 mph - N/A Thunderstorm Thunderstorm
2:56 PM 84.2 °F 85.6 °F 64.4 °F 51% 29.99 in 10.0 mi SW 16.1 mph 23.0 mph N/A Thunderstorm Thunderstorm
3:54 PM 75.0 °F - 63.0 °F 66% 29.93 in 10.0 mi South 12.7 mph 19.6 mph 0.00 in Thunderstorm Thunderstorm
4:54 PM 79.0 °F - 68.0 °F 69% 29.89 in 10.0 mi SSW 3.5 mph - 0.00 in Thunderstorm Thunderstorm
5:54 PM 82.0 °F 84.9 °F 68.0 °F 62% 29.89 in 10.0 mi South 5.8 mph - N/A Thunderstorm Thunderstorm
6:03 PM 80.6 °F 83.2 °F 68.0 °F 65% 29.97 in 10.0 mi South 6.9 mph - N/A   Clear
6:54 PM 81.0 °F 83.8 °F 68.0 °F 65% 29.90 in 10.0 mi South 3.5 mph - N/A   Clear
7:54 PM 80.1 °F 83.2 °F 70.0 °F 71% 29.92 in 10.0 mi Calm Calm - N/A   Clear
8:54 PM 77.0 °F - 71.1 °F 82% 29.92 in 10.0 mi Calm Calm - N/A   Mostly Cloudy
9:54 PM 73.9 °F - 70.0 °F 87% 29.94 in 10.0 mi Calm Calm - N/A   Partly Cloudy
10:54 PM 73.0 °F - 69.1 °F 87% 29.94 in 10.0 mi Calm Calm - N/A   Scattered Clouds
11:54 PM 73.0 °F - 68.0 °F 84% 29.95 in 10.0 mi South 8.1 mph - N/A   Partly Cloudy